Location: Apeadero de Los Molinos-Guadarrama
(40.7091°N, 4.0689°W)
Time: 12:19:57
(UTC+00:00)

USA 307 - Pass Details

Date: 14 May 2021
Orbit: 566 x 577 km, 54.0° (Epoch: 10 May)

Event Time Altitude Azimuth Distance (km) Brightness Sun altitude
Rises 21:12:06 0° 312° (NW) 2,776 8.2 -17.2°
Reaches altitude 10° 21:14:22 10° 315° (NW) 1,877 6.9 -17.5°
Maximum altitude 21:18:37 67° 38° (NE) 622 3.0 -18.0°
Enters shadow 21:20:07 38° 108° (ESE) 880 3.4 -18.2°
